Weather History for Bartlesville, OK

Change the Weather History Date:

Wednesday, February 20, 2013

  Actual Average Record
Temperature  
Mean Temperature 32 °F -  
Max Temperature 36 °F 57 °F 84 °F (1981)
Min Temperature 27 °F 30 °F 13 °F (1959)
Degree Days  
Heating Degree Days 34    
Moisture  
Dew Point 26 °F    
Average Humidity 84    
Maximum Humidity 100    
Minimum Humidity 44    
Precipitation  
Precipitation 0.11 in - - ()
Sea Level Pressure  
Sea Level Pressure 30.21 in    
Wind  
Wind Speed 6 mph (ENE)    
Max Wind Speed 12 mph    
Max Gust Speed -    
Visibility 5 miles    
Events Fog , Snow    
Averages and records for this station are not official NWS values.
T = Trace of Precipitation, MM = Missing Value Source: NWS Daily Summary

Daily Weather History Graph

Daily Weather History Graph

Search for Another Location

Airport:

Trip Planner

Search our weather history database for the weather conditions in past years. The results will help you decide how hot, cold, wet, or windy it might be!

Date:

Astronomy

Feb. 20, 2013 Rise Set
Actual Time 7:06 AM CST 6:09 PM CST
Civil Twilight 6:39 AM CST 6:36 PM CST
Nautical Twilight 6:09 AM CST 7:06 PM CST
Astronomical Twilight 5:39 AM CST 7:36 PM CST
Moon 1:36 PM CST 3:22 AM CST
Length of Visible Light 11h 56m
Length of Day
11h 03m
Waxing Gibbous, 76% of the Moon is Illuminated
Feb 20
Waxing Gibbous
Feb 25
Full
Mar 4
Last Quarter
Mar 11
New
Mar 19
First Quarter

Hourly Weather History & Observations

Time (CST) Temp. Windchill Dew Point Humidity Pressure Visibility Wind Dir Wind Speed Gust Speed Precip Events Conditions
12:53 AM 32.0 °F 28.7 °F 19.0 °F 59% 30.30 in 10.0 mi NE 3.5 mph - N/A   Clear
1:53 AM 32.0 °F 26.4 °F 18.0 °F 56% 30.30 in 10.0 mi ENE 5.8 mph - N/A   Clear
2:53 AM 32.0 °F 26.4 °F 16.0 °F 52% 30.27 in 10.0 mi ENE 5.8 mph - N/A   Clear
3:53 AM 32.0 °F 25.6 °F 15.1 °F 50% 30.27 in 10.0 mi ENE 6.9 mph - N/A   Overcast
4:53 AM 32.0 °F 27.5 °F 14.0 °F 48% 30.28 in 10.0 mi NE 4.6 mph - N/A   Overcast
5:53 AM 32.0 °F 25.6 °F 12.0 °F 44% 30.30 in 10.0 mi East 6.9 mph - N/A   Overcast
6:53 AM 32.0 °F 26.4 °F 12.9 °F 45% 30.31 in 10.0 mi ENE 5.8 mph - N/A   Overcast
7:53 AM 30.0 °F 23.2 °F 19.9 °F 66% 30.33 in 7.0 mi ENE 6.9 mph - 0.00 in Snow Light Snow
8:09 AM 28.4 °F 24.6 °F 23.0 °F 80% 30.31 in 1.8 mi NE 3.5 mph - 0.00 in Snow Light Snow
8:16 AM 28.4 °F 24.6 °F 24.8 °F 86% 30.32 in 1.5 mi East 3.5 mph - 0.00 in Snow Light Snow
8:19 AM 28.4 °F 23.3 °F 24.8 °F 86% 30.32 in 2.0 mi East 4.6 mph - 0.00 in Snow Light Snow
8:28 AM 28.4 °F 23.3 °F 24.8 °F 86% 30.32 in 3.0 mi ENE 4.6 mph - 0.00 in Snow Light Snow
8:33 AM 28.4 °F 24.6 °F 24.8 °F 86% 30.32 in 1.8 mi ENE 3.5 mph - 0.00 in Snow Light Snow
8:53 AM 28.0 °F 22.8 °F 25.0 °F 88% 30.33 in 1.0 mi NE 4.6 mph - 0.00 in Snow Light Snow
9:06 AM 28.4 °F 22.2 °F 24.8 °F 86% 30.31 in 0.8 mi NE 5.8 mph - 0.00 in Snow Light Snow
9:13 AM 28.4 °F 22.2 °F 26.6 °F 93% 30.32 in 0.8 mi NE 5.8 mph - 0.00 in Snow Light Snow
9:16 AM 28.4 °F 22.2 °F 26.6 °F 93% 30.31 in 0.5 mi NE 5.8 mph - 0.00 in Fog , Snow Snow
9:41 AM 28.4 °F 22.2 °F 26.6 °F 93% 30.30 in 0.8 mi ENE 5.8 mph - 0.00 in Snow Light Snow
9:53 AM 27.0 °F 18.0 °F 26.1 °F 96% 30.32 in 0.8 mi ENE 9.2 mph - 0.00 in Snow Light Snow
10:26 AM 28.4 °F 21.2 °F 26.6 °F 93% 30.30 in 0.5 mi East 6.9 mph - 0.00 in Fog , Snow Snow
10:53 AM 28.0 °F 20.8 °F 26.1 °F 92% 30.31 in 0.5 mi ENE 6.9 mph - 0.00 in Fog , Snow Snow
11:13 AM 28.4 °F 20.4 °F 26.6 °F 93% 30.28 in 0.8 mi ENE 8.1 mph - 0.00 in Snow Light Snow
11:25 AM 28.4 °F 21.2 °F 26.6 °F 93% 30.28 in 1.2 mi ENE 6.9 mph - 0.00 in Snow Light Snow
11:53 AM 28.9 °F 21.9 °F 27.0 °F 92% 30.28 in 1.2 mi East 6.9 mph - 0.00 in Snow Light Snow
12:12 PM 28.4 °F 21.2 °F 26.6 °F 93% 30.25 in 2.0 mi East 6.9 mph - 0.01 in Snow Light Snow
12:43 PM 30.2 °F 21.3 °F 26.6 °F 86% 30.24 in 2.0 mi ENE 10.4 mph - 0.02 in Snow Light Snow
12:53 PM 30.0 °F 21.7 °F 28.0 °F 92% 30.24 in 3.0 mi ENE 9.2 mph - 0.03 in Snow Light Snow
1:48 PM 30.2 °F 21.9 °F 28.4 °F 93% 30.20 in 2.0 mi East 9.2 mph - 0.06 in Snow Light Snow
1:53 PM 30.9 °F 22.8 °F 28.0 °F 89% 30.21 in 2.0 mi East 9.2 mph - 0.06 in Snow Light Snow
2:05 PM 30.2 °F 21.3 °F 28.4 °F 93% 30.19 in 4.0 mi East 10.4 mph - 0.00 in Snow Light Snow
2:37 PM 30.2 °F 22.6 °F 28.4 °F 93% 30.18 in 1.8 mi ENE 8.1 mph - 0.00 in Snow Light Snow
2:53 PM 30.9 °F 22.8 °F 28.9 °F 92% 30.18 in 2.5 mi ENE 9.2 mph - 0.00 in Snow Light Snow
3:01 PM 32.0 °F 23.0 °F 28.4 °F 87% 30.16 in 5.0 mi ENE 11.5 mph - 0.00 in Snow Light Snow
3:53 PM 34.0 °F 26.0 °F 30.9 °F 89% 30.13 in 9.0 mi East 10.4 mph - 0.00 in   Overcast
4:33 PM 35.6 °F 28.6 °F 32.0 °F 87% 30.11 in 10.0 mi East 9.2 mph - N/A   Overcast
4:53 PM 36.0 °F 30.3 °F 32.0 °F 86% 30.11 in 10.0 mi East 6.9 mph - N/A   Overcast
5:12 PM 35.6 °F 29.2 °F 30.2 °F 81% 30.10 in 10.0 mi East 8.1 mph - N/A   Overcast
5:53 PM 36.0 °F 28.5 °F 30.9 °F 82% 30.10 in 10.0 mi East 10.4 mph - N/A   Overcast
6:43 PM 35.6 °F 29.2 °F 30.2 °F 81% 30.08 in 10.0 mi ENE 8.1 mph - N/A   Overcast
6:53 PM 35.1 °F 28.6 °F 30.9 °F 85% 30.09 in 10.0 mi East 8.1 mph - N/A   Overcast
7:53 PM 35.1 °F 27.4 °F 30.9 °F 85% 30.09 in 8.0 mi East 10.4 mph - 0.00 in Snow Light Snow
8:53 PM 33.1 °F 27.7 °F 30.9 °F 92% 30.09 in 9.0 mi ENE 5.8 mph - 0.01 in   Overcast
9:05 PM 33.8 °F 27.0 °F 30.2 °F 87% 30.09 in 1.8 mi East 8.1 mph - 0.00 in Snow Light Snow
9:22 PM 32.0 °F 26.4 °F 30.2 °F 93% 30.09 in 2.5 mi NE 5.8 mph - 0.00 in Snow Light Snow
9:33 PM 32.0 °F 25.6 °F 30.2 °F 93% 30.09 in 4.0 mi ENE 6.9 mph - 0.00 in Snow Light Snow
9:48 PM 32.0 °F 25.6 °F 30.2 °F 93% 30.09 in 2.0 mi NE 6.9 mph - 0.00 in Snow Light Snow
10:05 PM 32.0 °F 24.8 °F 30.2 °F 93% 30.09 in 4.0 mi ENE 8.1 mph - 0.00 in Snow Light Snow
10:10 PM 32.0 °F 25.6 °F 30.2 °F 93% 30.09 in 1.8 mi ENE 6.9 mph - 0.00 in Snow Light Snow
10:25 PM 32.0 °F 24.2 °F 30.2 °F 93% 30.08 in 3.0 mi ENE 9.2 mph - 0.00 in Snow Light Snow
10:50 PM 30.2 °F 22.6 °F 30.2 °F 100% 30.07 in 4.0 mi East 8.1 mph - 0.01 in Snow Light Snow
10:53 PM 30.9 °F 24.3 °F 30.0 °F 96% 30.08 in 3.0 mi East 6.9 mph - 0.01 in Snow Light Snow
11:53 PM 30.9 °F 23.5 °F 28.9 °F 92% 30.06 in 10.0 mi ENE 8.1 mph - 0.00 in   Overcast